Regional Weather Roundup
Issued by NWS

Home | Current Version | Previous Version | Graphics & Text | Print | Product List | Glossary On
Versions: 1 2 3 4 5 6 7 8 9 10 11 12 13 14 15 16 17 18 19 20 21 22 23 24 25 26 27 28 29 30 31 32 33 34 35 36 37 38 39 40 41 42 43 44 45 46 47 48 49 50
000
ASUS43 KDMX 280307
RWRIA

WEATHER ROUNDUP FOR IOWA
NATIONAL WEATHER SERVICE DES MOINES IA
1000 PM CDT WED AUG 27 2014

NOTE: "FAIR" INDICATES FEW OR NO CLOUDS BELOW 12,000 FEET WITH NO
SIGNIFICANT WEATHER AND/OR OBSTRUCTIONS TO VISIBILITY.

* - THESE STATIONS ARE NOT NWS STATIONS...THUS NOT UNDER NWS
QUALITY CONTROL.  THEY ALSO DO NOT REPORT WEATHER SUCH
AS PRECIPITATION OR FOG.

IAZ001>003-012>014-020>022-031>034-043>046-280400-
   NORTHWEST IOWA

CITY           SKY/WX    TMP DP  RH WIND       PRES   REMARKS
CARROLL *      CLOUDY    68  68 100 E5        30.10S
DENISON *      CLOUDY    70  70 100 VRB3      30.08R
LE MARS *      CLOUDY    70  68  94 SE5       30.10R
ORANGE CITY *  CLOUDY    72  66  83 SE5       30.11R
SHELDON *      CLOUDY    66  66 100 E3        30.10R
SIOUX CITY     CLOUDY    70  68  93 E6        30.08R
SPENCER        CLOUDY    70  64  81 E9        30.12R
STORM LAKE *   CLOUDY    68  68 100 E7        30.11S
$$

IAZ055>058-069>071-079>083-090>094-280400-
   SOUTHWEST IOWA

CITY           SKY/WX    TMP DP  RH WIND       PRES   REMARKS
ATLANTIC *     CLOUDY    70  68  94 E5        30.09R
AUDUBON *      MOCLDY    70  68  94 E5        30.11R FOG
CLARINDA *     CLOUDY    72  70  94 CALM      30.09R
COUNCIL BLFS * CLOUDY    72  72 100 E8        30.06R
CRESTON *      PTCLDY    70  70 100 E7        30.11S
HARLAN  *      CLOUDY    68  68 100 E5        30.13R
LAMONI         MOCLDY    72  69  90 NE3       30.10R
RED OAK *      CLOUDY    72  70  94 E7        30.07S
SHENANDOAH *   CLOUDY    72  70  94 NE3       30.07R
$$

IAZ047>049-059>061-072>074-084-280400-
   CENTRAL IOWA

CITY           SKY/WX    TMP DP  RH WIND       PRES   REMARKS
AMES           CLOUDY    68  66  93 E3        30.12R
ANKENY *       CLEAR     70  70 100 NE3       30.11R
CHARITON *     CLOUDY    70  68  94 NE6       30.10S
DES MOINES     CLOUDY    73  68  84 E3        30.10R
GRINNELL*      MOCLDY    66  64  94 SE3       30.12S
KNOXVILLE *    CLOUDY    72  68  88 E5        30.10S
MARSHALLTOWN   MOCLDY    67  65  93 CALM      30.13R
PELLA *        MOCLDY    72  66  83 E3        30.11F
PERRY *          N/A     70  68  94 E5        30.10F
$$

IAZ004>006-015-016-023>025-035-036-280400-
   NORTH CENTRAL IOWA

CITY           SKY/WX    TMP DP  RH WIND       PRES   REMARKS
ALGONA *       CLOUDY    68  63  83 E6        30.14R
CLARION *      CLOUDY    66  64  94 E5        30.14R
ESTHERVILLE    PTCLDY    64  61  90 E7        30.13R
FORT DODGE *   CLOUDY    68  64  88 E7        30.13S
MASON CITY     PTCLDY    64  61  90 E3        30.16R
FOREST CITY *  CLEAR     63  63 100 CALM      30.14S
IOWA FALLS *   CLOUDY    66  63  88 CALM      30.15R
$$

IAZ007>011-017>019-026>030-037>042-050>054-066-280400-
   NORTHEAST IOWA

CITY           SKY/WX    TMP DP  RH WIND       PRES   REMARKS
CEDAR RAPIDS   PTCLDY    66  63  90 E6        30.11R
CHARLES CITY * PTCLDY    66  61  82 E6        30.16R
CLINTON *      CLEAR     64  61  88 N5        30.15R
DECORAH *      CLEAR     61  61 100 CALM      30.15R
DUBUQUE        PTCLDY    66  61  84 E6        30.14R
MONTICELLO *   CLEAR     64  64 100 CALM      30.13R
OELWEIN *      MOCLDY    64  61  88 E5        30.15R
WATERLOO       MOCLDY    65  61  87 NE3       30.12R
$$

IAZ064-065-067-068-078-280400-
   EAST CENTRAL IOWA

CITY           SKY/WX    TMP DP  RH WIND       PRES   REMARKS
DAVENPORT      CLEAR     64  61  90 E3        30.12S
IOWA CITY      PTCLDY    68  64  87 E3        30.12R
MT. PLEASANT * MOCLDY    70  68  94 NE5       30.10F
MUSCATINE *    CLEAR     68  64  88 CALM      30.10F
QUAD CITIES    CLEAR     67  63  87 CALM      30.11R
$$

IAZ062-063-075>077-085>089-095>099-280400-
   SOUTHEAST IOWA

CITY           SKY/WX    TMP DP  RH WIND       PRES   REMARKS
BURLINGTON     PTCLDY    73  69  87 NE6       30.09S
FAIRFIELD *    PTCLDY    70  66  88 NE5       30.11R
FORT MADISON * CLEAR     72  72 100 NE3       30.10S
KEOKUK *       MOCLDY    73  72  94 N6        30.07F
OSKALOOSA *      N/A     70  68  94 E5        30.11S
CENTERVILLE *  PTCLDY    72  72 100 CALM      30.12R
OTTUMWA        MOCLDY    71  68  90 NE5       30.10S
WASHINGTON *   CLEAR     68  66  94 E5        30.10F
$$

ABBREVIATIONS USED IN REMARKS
   TC - TEMPERATURES IN CELSIUS
  WCI - WIND CHILL INDEX
   HX - HEAT INDEX
  VSB - VISIBILITY
$$



USA.gov is the U.S. government's official web portal to all federal, state and local government web resources and services.